IRIDIUM 106 1 41917U 17003A 25343.04604455 -.00000133 00000+0 -54506-4 0 9990 2 41917 86.3992 167.9961 0002110 100.6486 259.4948 14.34217457465957 IRIDIUM 103 1 41918U 17003B 25343.03335139 .00000125 00000+0 37409-4 0 9992 2 41918 86.3987 167.9021 0001565 92.2145 267.9230 14.34219486465974 IRIDIUM 109 1 41919U 17003C 25343.03971861 .00000138 00000+0 42361-4 0 9998 2 41919 86.3988 167.9557 0001864 89.9495 270.1914 14.34218967465948 IRIDIUM 102 1 41920U 17003D 25343.00798505 .00000159 00000+0 49795-4 0 9990 2 41920 86.3986 167.8967 0002018 86.6924 273.4503 14.34216965466021 IRIDIUM 105 1 41921U 17003E 25342.97872187 .00000506 00000+0 17353-3 0 9995 2 41921 86.3973 136.4023 0001871 93.4860 266.6550 14.34219650467878 IRIDIUM 104 1 41922U 17003F 25343.02067259 .00000115 00000+0 34107-4 0 9992 2 41922 86.3988 167.9311 0001725 81.7657 278.3735 14.34217686466013 IRIDIUM 114 1 41923U 17003G 25343.02700087 .00000097 00000+0 27445-4 0 9992 2 41923 86.3987 167.9123 0001779 87.5420 272.5979 14.34217843465992 IRIDIUM 108 1 41924U 17003H 25342.91576808 -.00000005 00000+0 -89766-5 0 9998 2 41924 86.3972 136.3189 0002026 91.3789 268.7639 14.34217642467838 IRIDIUM 112 1 41925U 17003J 25343.01432825 -.00000018 00000+0 -13434-4 0 9993 2 41925 86.3989 167.7685 0001799 84.4221 275.7180 14.34217096466017 IRIDIUM 111 1 41926U 17003K 25343.07141412 -.00000111 00000+0 -46685-4 0 9997 2 41926 86.3990 167.8109 0001799 91.6312 268.5090 14.34217516466009 IRIDIUM 113 1 42803U 17039A 25343.19091664 .00000346 00000+0 11649-3 0 9996 2 42803 86.3976 41.5790 0002003 93.2412 266.9013 14.34217679443956 IRIDIUM 123 1 42804U 17039B 25343.16262764 .00000423 00000+0 14401-3 0 9990 2 42804 86.3968 73.0750 0001969 105.3638 254.7775 14.34216215442717 IRIDIUM 120 1 42805U 17039C 25343.18457510 .00000275 00000+0 91266-4 0 9998 2 42805 86.3965 41.3888 0002408 99.5727 260.5741 14.34217012443947 IRIDIUM 115 1 42806U 17039D 25343.15206994 .00000557 00000+0 15966-3 0 9999 2 42806 86.4503 41.5050 0002327 108.5445 251.6009 14.43282068446852 IRIDIUM 118 1 42807U 17039E 25342.77571316 .00000562 00000+0 19373-3 0 9992 2 42807 86.3968 73.2355 0001931 95.9146 264.2270 14.34225952442657 IRIDIUM 117 1 42808U 17039F 25343.14359608 .00000381 00000+0 12899-3 0 9998 2 42808 86.3969 73.0402 0001980 102.9974 257.1443 14.34214769442738 IRIDIUM 126 1 42809U 17039G 25343.16896774 .00000523 00000+0 17985-3 0 9990 2 42809 86.3970 73.0786 0001850 97.4635 262.6771 14.34216122442712 IRIDIUM 124 1 42810U 17039H 25343.15522319 .00000649 00000+0 18677-3 0 9990 2 42810 86.4494 9.8064 0002192 98.1754 261.9695 14.43287502447703 IRIDIUM 128 1 42811U 17039J 25343.08993888 .00000395 00000+0 13405-3 0 9998 2 42811 86.3960 104.6450 0002300 101.5216 258.6238 14.34215447442730 IRIDIUM 121 1 42812U 17039K 25343.18799823 .00000335 00000+0 11252-3 0 9995 2 42812 86.3969 73.0969 0002188 96.0489 264.0956 14.34217842442591 IRIDIUM 133 1 42955U 17061A 25342.84258236 .00000425 00000+0 14474-3 0 9997 2 42955 86.3966 104.8619 0002026 97.9055 262.2370 14.34212704427495 IRIDIUM 100 1 42956U 17061B 25342.83622543 .00000621 00000+0 21452-3 0 9995 2 42956 86.3962 104.7873 0001962 97.9477 262.1942 14.34222360427492 IRIDIUM 122 1 42957U 17061C 25343.08359626 -.00000007 00000+0 -94467-5 0 9991 2 42957 86.3964 104.6837 0001804 97.0924 263.0477 14.34217117427539 IRIDIUM 129 1 42958U 17061D 25342.89965873 .00000429 00000+0 14622-3 0 9996 2 42958 86.3962 104.8253 0001871 84.1577 275.9832 14.34214761427525 IRIDIUM 119 1 42959U 17061E 25343.07725463 .00000363 00000+0 12259-3 0 9998 2 42959 86.3963 104.7462 0001775 92.8370 267.3029 14.34216554427567 IRIDIUM 107 1 42960U 17061F 25343.09628160 .00000419 00000+0 14240-3 0 9992 2 42960 86.3963 104.7585 0001839 106.9187 253.2211 14.34217814427577 IRIDIUM 132 1 42961U 17061G 25342.89331294 .00000471 00000+0 16128-3 0 9994 2 42961 86.3963 104.8240 0001973 98.8973 261.2446 14.34220993427546 IRIDIUM 136 1 42962U 17061H 25343.06456898 -.00000141 00000+0 -57563-4 0 9998 2 42962 86.3965 104.7585 0001711 94.2593 265.8798 14.34216386427583 IRIDIUM 139 1 42963U 17061J 25343.07091179 .00000315 00000+0 10535-3 0 9995 2 42963 86.3965 104.8145 0001990 100.1677 259.9744 14.34217636427591 IRIDIUM 125 1 42964U 17061K 25342.84890943 .00000621 00000+0 21459-3 0 9993 2 42964 86.3967 104.9648 0001467 106.2833 253.8524 14.34221949427572 IRIDIUM 135 1 43070U 17083A 25343.17188569 .00000108 00000+0 31424-4 0 9991 2 43070 86.3973 41.4359 0002215 93.6747 266.4702 14.34219019416916 IRIDIUM 138 1 43071U 17083B 25343.19725880 .00000080 00000+0 21651-4 0 9997 2 43071 86.3985 41.0914 0001810 89.1008 271.0395 14.34217654416905 IRIDIUM 116 1 43072U 17083C 25343.16554572 .00000373 00000+0 12620-3 0 9993 2 43072 86.3970 41.4270 0002434 99.6626 260.4845 14.34217019416934 IRIDIUM 130 1 43073U 17083D 25343.13383532 .00000222 00000+0 72107-4 0 9997 2 43073 86.3979 41.6969 0002308 103.0480 257.0974 14.34214069416879 IRIDIUM 151 1 43074U 17083E 25343.17823174 .00000303 00000+0 10109-3 0 9996 2 43074 86.3972 41.4750 0002201 95.4424 264.7023 14.34217199416904 IRIDIUM 134 1 43075U 17083F 25343.14650448 .00000397 00000+0 13483-3 0 9997 2 43075 86.3976 41.4940 0002167 101.1621 258.9819 14.34217107416867 IRIDIUM 137 1 43076U 17083G 25343.15920551 .00000255 00000+0 83994-4 0 9992 2 43076 86.3975 41.5774 0002702 93.0779 267.0726 14.34217546416934 IRIDIUM 141 1 43077U 17083H 25343.15285799 .00000010 00000+0 -34134-5 0 9994 2 43077 86.3970 41.4212 0001939 95.9590 264.1827 14.34218338416939 IRIDIUM 153 1 43078U 17083J 25343.17480902 .00000409 00000+0 13894-3 0 9999 2 43078 86.3972 9.9028 0001837 93.4583 266.6823 14.34222871418042 IRIDIUM 131 1 43079U 17083K 25343.14017640 .00000180 00000+0 57160-4 0 9993 2 43079 86.3975 41.6000 0002087 93.3717 266.7717 14.34217636416869 IRIDIUM 144 1 43249U 18030A 25343.18115131 .00000296 00000+0 98498-4 0 9990 2 43249 86.3970 9.8337 0002302 96.2060 263.9398 14.34217820402904 IRIDIUM 149 1 43250U 18030B 25343.11772465 .00000158 00000+0 49522-4 0 9995 2 43250 86.3971 9.8295 0002178 93.6486 266.4959 14.34216722402916 IRIDIUM 157 1 43251U 18030C 25343.13675250 .00000203 00000+0 65427-4 0 9995 2 43251 86.3974 9.8705 0002256 89.1162 271.0293 14.34215465402897 IRIDIUM 140 1 43252U 18030D 25343.15578088 .00000337 00000+0 11338-3 0 9998 2 43252 86.3971 9.8756 0002209 95.8915 264.2532 14.34218075402956 IRIDIUM 145 1 43253U 18030E 25343.14309564 .00000102 00000+0 29205-4 0 9992 2 43253 86.3971 9.8536 0002442 99.9692 260.1779 14.34216979402880 IRIDIUM 146 1 43254U 18030F 25343.12406766 .00000269 00000+0 89060-4 0 9992 2 43254 86.3969 9.8743 0002320 96.2137 263.9323 14.34217375402895 IRIDIUM 148 1 43255U 18030G 25343.16211764 .00000212 00000+0 68577-4 0 9997 2 43255 86.3975 9.8984 0002256 91.2349 268.9106 14.34215457402936 IRIDIUM 142 1 43256U 18030H 25343.13041036 .00000372 00000+0 12579-3 0 9995 2 43256 86.3970 9.8079 0002530 99.2748 260.8734 14.34218093402895 IRIDIUM 150 1 43257U 18030J 25343.16846495 .00000112 00000+0 32777-4 0 9996 2 43257 86.3972 9.9018 0002312 97.0297 263.1162 14.34216106402923 IRIDIUM 143 1 43258U 18030K 25343.14943742 .00000225 00000+0 73257-4 0 9991 2 43258 86.3973 9.9951 0002377 98.1467 261.9999 14.34216532402852 IRIDIUM 161 1 43478U 18047C 25343.06382980 .00000189 00000+0 50151-4 0 9992 2 43478 86.4507 167.9153 0001935 83.4285 276.7136 14.43277857397715 IRIDIUM 152 1 43479U 18047D 25343.05238617 .00000054 00000+0 12317-4 0 9992 2 43479 86.3983 167.7806 0001830 87.4304 272.7101 14.34218261395233 IRIDIUM 147 1 43480U 18047E 25343.05872671 -.00000076 00000+0 -34295-4 0 9993 2 43480 86.3989 167.7798 0001953 85.7424 274.3995 14.34216797395232 IRIDIUM 110 1 43481U 18047F 25342.99529774 .00000085 00000+0 23459-4 0 9997 2 43481 86.3986 167.8930 0001759 75.7419 284.3972 14.34218523395219 IRIDIUM 162 1 43482U 18047G 25343.05752410 .00000096 00000+0 22606-4 0 9996 2 43482 86.4506 167.8114 0001688 94.0510 266.0884 14.43282784397705 IRIDIUM 160 1 43569U 18061A 25342.94113983 .00000215 00000+0 69889-4 0 9998 2 43569 86.3973 136.3387 0001961 86.1992 273.9428 14.34217030386106 IRIDIUM 166 1 43570U 18061B 25342.96650498 .00000192 00000+0 61480-4 0 9992 2 43570 86.3974 136.2808 0002172 93.6619 266.4826 14.34215539386134 IRIDIUM 158 1 43571U 18061C 25342.93479440 .00000240 00000+0 78499-4 0 9998 2 43571 86.3973 136.3044 0001753 94.7800 265.3596 14.34216927386094 IRIDIUM 165 1 43572U 18061D 25342.96016522 .00000248 00000+0 81434-4 0 9991 2 43572 86.3974 136.3363 0002103 91.8159 268.3278 14.34215661386123 IRIDIUM 155 1 43573U 18061E 25342.99187919 .00000418 00000+0 14230-3 0 9992 2 43573 86.3969 136.2017 0001980 99.1624 260.9796 14.34216560386091 IRIDIUM 154 1 43574U 18061F 25342.97286594 .00000476 00000+0 16303-3 0 9997 2 43574 86.3973 136.3337 0002038 91.4745 268.6684 14.34219194386140 IRIDIUM 163 1 43575U 18061G 25343.02359324 .00000209 00000+0 67520-4 0 9999 2 43575 86.3970 136.2340 0001772 91.1596 268.9802 14.34218776386124 IRIDIUM 156 1 43576U 18061H 25342.92845419 .00000452 00000+0 15421-3 0 9995 2 43576 86.3972 136.2808 0002025 99.0996 261.0428 14.34216290386104 IRIDIUM 164 1 43577U 18061J 25342.97919802 .00000294 00000+0 98053-4 0 9996 2 43577 86.3974 136.2968 0002104 90.8140 269.3296 14.34221091386156 IRIDIUM 159 1 43578U 18061K 25342.94747779 .00000323 00000+0 10818-3 0 9991 2 43578 86.3971 136.2512 0001978 86.6858 273.4564 14.34214259386114 IRIDIUM 180 1 43922U 19002A 25343.15628464 .00000167 00000+0 52499-4 0 9991 2 43922 86.3965 73.0395 0002018 94.1575 265.9851 14.34216929361757 IRIDIUM 176 1 43923U 19002B 25343.18922259 .00001521 00000+0 23718-3 0 9990 2 43923 86.6088 72.9966 0002242 99.3116 260.8354 14.72267902371297 IRIDIUM 168 1 43924U 19002C 25343.14994127 .00000052 00000+0 11366-4 0 9995 2 43924 86.3972 73.1140 0001966 96.7614 263.3806 14.34216591361734 IRIDIUM 173 1 43925U 19002D 25343.13725507 .00000630 00000+0 21806-3 0 9990 2 43925 86.3965 73.0157 0001888 99.6101 260.5308 14.34216811361719 IRIDIUM 169 1 43926U 19002E 25343.08675602 .00000606 00000+0 19147-3 0 9993 2 43926 86.4218 104.6876 0001705 129.6643 230.4706 14.38615449362896 IRIDIUM 172 1 43927U 19002F 25343.13091311 .00000406 00000+0 13799-3 0 9994 2 43927 86.3964 73.0256 0002001 91.8812 268.2613 14.34217166361720 IRIDIUM 175 1 43928U 19002G 25343.11654750 .00001092 00000+0 16926-3 0 9992 2 43928 86.1504 15.6378 0003133 96.7949 263.3625 14.72247980371277 IRIDIUM 171 1 43929U 19002H 25343.18165573 -.00000057 00000+0 -27404-4 0 9996 2 43929 86.3974 73.2901 0002170 101.4636 258.6804 14.34216875361722 IRIDIUM 170 1 43930U 19002J 25343.19543993 .00000900 00000+0 13891-3 0 9994 2 43930 86.6081 72.9975 0002276 91.5371 268.6106 14.72247413371300 IRIDIUM 167 1 43931U 19002K 25343.17531292 .00000072 00000+0 18685-4 0 9999 2 43931 86.3966 73.0282 0002293 107.1513 252.9934 14.34216727361726 IRIDIUM 181 1 56726U 23068S 25342.93592321 .00000526 00000+0 15036-3 0 9995 2 56726 86.4509 136.3143 0002576 86.7166 273.4330 14.43319143134996 IRIDIUM 177 1 56727U 23068T 25343.15926138 .00002011 00000+0 26104-3 0 9997 2 56727 86.1967 59.0304 0002299 85.9267 274.2216 14.80242030138253 IRIDIUM 174 1 56728U 23068U 25342.77526217 .00002221 00000+0 34831-3 0 9998 2 56728 86.6093 73.3019 0002277 88.0791 272.0687 14.72257112138002 IRIDIUM 178 1 56729U 23068V 25343.08076856 .00002085 00000+0 27104-3 0 9996 2 56729 86.6537 104.8275 0002431 99.8161 260.3335 14.80229266138247 IRIDIUM 179 1 56730U 23068W 25343.07538740 .00002128 00000+0 27668-3 0 9995 2 56730 86.6779 113.2417 0002523 93.6795 266.4715 14.80228057138242